Sioux Falls, SD

3:37 AM CST on January 22, 2017 (GMT -0600)
Foss

Weather History for KFSD - August, 2012

Change the Weather History Date:

Thursday, August 30, 2012

  Actual Average Record
Temperature  
Mean Temperature 84 °F 68 °F  
Max Temperature 104 °F 79 °F 104 °F (2012)
Min Temperature 64 °F 57 °F 37 °F (1893)
Degree Days  
Heating Degree Days 0 2  
Month to date heating degree days 18 19  
Since 1 June heating degree days 39 78  
Since 1 July heating degree days 18 27  
Cooling Degree Days 19 5  
Month to date cooling degree days 248 195  
Year to date cooling degree days 1089 622  
Since 1 June cooling degree days 1003 586  
Growing Degree Days 35 (Base 50)    
Moisture  
Dew Point 52 °F    
Average Humidity 41    
Maximum Humidity 68    
Minimum Humidity 13    
Precipitation  
Precipitation 0.00 in 0.11 in 1.76 in (1962)
Month to date precipitation 1.75 2.95  
Year to date precipitation 13.68 19.29  
Snow  
Snow 0.00 in 0.00 in 0.00 in ()
Month to date snowfall 0.0 0.0  
Since 1 June snowfall 0.0 0.0  
Since 1 July snowfall 0.0 0.0  
Snow Depth 0.00 in    
Sea Level Pressure  
Sea Level Pressure 29.78 in    
Wind  
Wind Speed 10 mph (WSW)    
Max Wind Speed 18 mph    
Max Gust Speed 24 mph    
Visibility 10 miles    
Events      
T = Trace of Precipitation, MM = Missing Value Source: NWS Daily Summary

Daily Weather History Graph

Daily Weather History Graph

Search for Another Location

Airport or City:

Trip Planner

Search our weather history database for the weather conditions in past years. The results will help you decide how hot, cold, wet, or windy it might be!

Date:

Astronomy

Aug. 30, 2012 Rise Set
Actual Time 6:49 AM CDT 8:04 PM CDT
Civil Twilight 6:19 AM CDT 8:34 PM CDT
Nautical Twilight 5:43 AM CDT 9:09 PM CDT
Astronomical Twilight 5:06 AM CDT 9:47 PM CDT
Moon 7:18 PM CDT (8/30) 5:51 AM CDT (8/30)
Length of Visible Light 14h 15m
Length of Day
13h 15m
Waxing Gibbous, 99% of the Moon is Illuminated
Aug 30
Waxing Gibbous
Aug 31
Full
Sep 8
Last Quarter
Sep 15
New
Sep 22
First Quarter

Hourly Weather History & Observations

Time (CDT) Temp. Heat Index Dew Point Humidity Pressure Visibility Wind Dir Wind Speed Gust Speed Precip Events Conditions
12:56 AM 79.0 °F - 50.0 °F 36% 29.72 in 10.0 mi South 8.1 mph - N/A   Clear
1:56 AM 81.0 °F - 51.1 °F 35% 29.72 in 10.0 mi SSW 10.4 mph - N/A   Clear
2:56 AM 80.1 °F - 50.0 °F 35% 29.71 in 10.0 mi SSW 10.4 mph - N/A   Clear
3:56 AM 78.1 °F - 50.0 °F 37% 29.71 in 10.0 mi SSW 12.7 mph - N/A   Clear
4:56 AM 77.0 °F - 50.0 °F 39% 29.70 in 10.0 mi SSW 10.4 mph - N/A   Clear
5:56 AM 75.0 °F - 50.0 °F 41% 29.70 in 10.0 mi SSW 13.8 mph - N/A   Clear
6:56 AM 75.0 °F - 50.0 °F 41% 29.72 in 10.0 mi SSW 12.7 mph - N/A   Clear
7:56 AM 75.9 °F - 51.1 °F 42% 29.73 in 10.0 mi South 13.8 mph - N/A   Clear
8:56 AM 80.1 °F - 51.1 °F 36% 29.74 in 10.0 mi SSW 13.8 mph - N/A   Clear
9:56 AM 81.0 °F - 50.0 °F 34% 29.75 in 10.0 mi SSW 12.7 mph - N/A   Clear
10:56 AM 87.1 °F - 48.9 °F 27% 29.76 in 10.0 mi SW 10.4 mph 16.1 mph N/A   Clear
11:56 AM 91.9 °F - 46.9 °F 21% 29.76 in 10.0 mi SW 11.5 mph 19.6 mph N/A   Clear
12:56 PM 97.0 °F - 45.0 °F 17% 29.75 in 10.0 mi SW 9.2 mph 17.3 mph N/A   Clear
1:56 PM 100.9 °F - 46.9 °F 16% 29.75 in 10.0 mi SW 8.1 mph 20.7 mph N/A   Clear
2:56 PM 102.9 °F - 42.1 °F 13% 29.75 in 10.0 mi West 10.4 mph - N/A   Clear
3:40 PM 100.4 °F - 51.8 °F 20% 29.80 in 10.0 mi NNW 16.1 mph - N/A   Clear
3:56 PM 100.0 °F - 52.0 °F 20% 29.76 in 10.0 mi NNW 16.1 mph - N/A   Clear
4:56 PM 93.9 °F 92.0 °F 55.0 °F 27% 29.78 in 10.0 mi NNW 12.7 mph - N/A   Clear
5:56 PM 86.0 °F 86.3 °F 62.1 °F 44% 29.81 in 10.0 mi NNE 11.5 mph - N/A   Clear
6:56 PM 78.1 °F - 57.9 °F 50% 29.85 in 10.0 mi North 12.7 mph 20.7 mph N/A   Clear
7:56 PM 73.9 °F - 55.9 °F 53% 29.87 in 10.0 mi North 8.1 mph - N/A   Clear
8:56 PM 70.0 °F - 55.9 °F 61% 29.90 in 10.0 mi North 5.8 mph - N/A   Clear
9:56 PM 68.0 °F - 55.9 °F 65% 29.92 in 10.0 mi NE 3.5 mph - N/A   Clear
10:56 PM 66.0 °F - 55.9 °F 70% 29.94 in 10.0 mi North 4.6 mph - N/A   Clear
11:56 PM 66.9 °F - 55.0 °F 66% 29.96 in 10.0 mi Calm Calm - N/A   Clear